Wind_Speed
37 40 42 40 40 40 38 37 39 39 37 37 39 41 43 45 47 45 43 40 38 47 53 50 55 58 56 54 51 49 48 48 50 51 53 52 50 49 47 47 46 44 41 35 33 34 34 32 30 31 32 32 33 35 36 37 39 41 41 43 43 43 42 40 39 39 38 36 36 36 35 35 36 39 41 41 40 38 36 35 33 32 30 29 28 29
41 45 46 44 42 40 38 37 38 38 36 36 38 40 43 45 48 46 42 41 38 46 55 50 53 59 55 54 51 48 49 50 49 49 50 48 45 44 43 42 42 39 37 35 35 35 33 32 31 32 33 33 33 33 35 37 39 40 42 43 43 42 43 41 38 38 37 36 36 35 34 34 35 38 40 40 38 37 36 35 33 32 31 30 29 29
45 49 47 42 40 37 36 34 33 34 34 35 36 39 44 45 47 49 45 43 39 44 53 50 54 60 55 53 52 49 49 48 44 43 43 44 43 42 41 39 38 38 36 36 34 31 30 30 29 29 31 32 31 31 34 37 39 41 43 44 43 43 42 40 38 37 37 35 36 36 34 34 35 36 38 39 38 37 37 36 34 33 32 31 29 29
46 47 43 38 37 36 35 32 31 33 36 38 39 41 46 44 45 50 48 44 41 43 49 50 57 63 56 53 49 41 41 42 41 43 42 42 43 42 40 37 36 36 34 31 27 23 24 25 26 27 29 30 31 31 33 35 37 39 41 43 43 42 41 40 38 37 36 36 37 37 35 35 35 36 37 39 38 38 38 37 36 34 31 29 27 26
48 44 42 40 40 40 40 38 35 36 41 45 45 43 46 46 45 49 47 43 42 43 43 44 53 60 45 34 34 33 40 47 45 45 43 42 41 36 33 30 28 28 24 20 18 17 18 20 23 26 27 29 30 30 30 31 33 36 37 39 41 41 41 39 37 36 37 37 37 37 37 36 36 36 37 38 37 37 37 36 33 30 28 26 25 25
46 41 40 41 42 41 41 42 37 35 42 48 47 42 43 45 44 43 40 38 39 36 32 28 29 37 25 15 30 44 48 49 45 43 42 37 27 17 18 21 19 17 14 13 15 17 18 19 20 24 25 26 26 26 27 30 33 35 36 37 38 39 40 38 36 36 36 36 37 37 37 36 37 36 36 35 35 34 33 30 27 25 25 25 25 25
41 35 34 35 36 35 34 36 33 31 38 45 44 38 38 40 39 38 34 32 30 26 25 19 12 26 37 31 35 46 47 45 41 35 27 16 6 10 20 24 21 16 13 14 19 23 23 20 19 21 23 23 23 24 27 30 33 34 35 36 36 35 35 35 34 34 34 35 36 35 35 34 35 34 33 33 33 32 29 27 25 25 25 26 25 24
33 30 30 29 28 27 27 27 26 25 32 40 38 34 34 34 34 33 29 27 29 32 34 27 16 24 44 43 36 42 40 32 26 13 4 4 10 21 23 16 12 11 13 20 27 31 29 22 19 21 23 24 25 26 28 31 33 34 35 35 34 33 33 33 32 30 31 32 33 32 32 32 31 31 32 34 32 30 29 29 28 28 27 25 23 21
31 30 31 30 28 27 27 26 25 24 28 33 33 32 34 32 33 33 31 30 31 34 29 17 10 13 34 52 42 32 22 12 7 5 4 15 23 22 13 8 8 8 17 27 33 33 26 20 20 22 24 25 26 27 28 32 33 35 34 33 33 32 32 31 29 28 29 30 31 30 29 28 27 29 31 32 31 31 33 32 31 29 26 24 22 20
31 31 32 31 31 29 27 25 26 26 26 28 28 31 32 31 33 31 32 33 26 25 19 7 7 7 28 54 35 13 10 3 4 3 13 28 21 11 7 8 11 14 24 30 29 26 20 19 22 24 26 26 27 29 29 31 32 33 33 33 32 31 30 30 28 28 28 29 29 28 26 25 26 28 30 30 32 34 35 33 31 28 25 23 22 20
31 31 32 32 31 27 25 24 26 26 26 28 27 30 31 31 34 31 32 30 14 16 22 15 14 10 18 36 17 3 7 4 9 12 30 28 11 5 7 11 18 24 27 26 23 20 18 21 24 25 27 27 29 32 30 30 29 29 30 29 29 28 30 30 28 26 26 27 27 25 25 25 25 27 29 31 33 34 34 31 28 26 25 24 22 21
30 30 31 33 31 28 27 25 27 27 27 29 29 30 28 23 24 21 20 16 3 11 26 22 19 15 17 23 11 4 9 8 17 32 31 17 9 11 18 20 24 25 25 24 23 21 20 24 25 25 28 28 30 32 30 29 28 26 26 27 29 29 29 27 25 24 24 25 24 24 24 24 25 27 29 30 32 32 31 29 28 26 25 24 23 22
34 36 35 36 37 32 28 27 28 27 26 28 30 29 18 9 10 7 4 4 6 16 28 18 11 17 32 43 35 29 29 26 31 29 18 14 16 23 26 21 20 20 23 27 26 24 23 25 26 26 28 29 30 30 29 29 28 26 26 28 30 29 27 25 24 24 24 24 24 23 24 24 25 27 27 29 30 31 31 31 30 29 27 26 24 23
34 37 35 35 36 32 28 26 24 23 22 23 25 24 13 4 3 4 3 3 6 19 26 17 12 17 34 44 38 31 26 21 19 13 14 24 27 25 23 18 17 19 21 25 29 27 26 27 27 28 29 30 31 30 29 28 26 25 25 26 26 25 25 24 24 24 24 24 24 23 24 24 25 26 27 28 30 31 32 32 31 29 27 26 24 23
23 26 27 24 23 26 27 23 19 22 24 24 26 23 18 17 11 7 5 5 8 15 15 10 10 12 24 31 28 21 18 18 20 20 27 36 29 18 15 14 17 23 24 24 26 27 29 30 31 31 31 31 31 29 27 24 21 20 20 19 19 19 20 21 21 22 22 22 23 23 23 23 24 25 26 28 29 31 32 32 31 29 27 26 25 24
19 25 32 26 21 24 25 22 20 21 21 23 24 21 23 29 28 21 19 22 20 12 9 12 15 24 38 47 46 40 38 37 35 36 36 31 22 15 15 16 16 20 22 18 18 23 28 32 32 31 30 29 29 28 26 22 17 16 15 13 13 14 16 17 17 19 20 21 22 21 22 23 24 25 26 27 29 31 32 32 32 30 29 28 27 27
19 28 38 33 26 25 26 27 28 25 21 18 19 25 31 34 33 28 22 26 23 10 13 23 27 36 43 47 49 45 39 35 28 27 26 19 16 18 19 19 15 14 15 15 17 21 26 30 30 28 27 26 26 26 24 21 18 18 16 13 13 13 13 14 16 18 19 20 21 20 21 23 24 26 27 28 30 31 33 34 33 32 32 32 30 30
26 33 41 41 37 35 34 35 36 35 33 27 27 36 37 26 25 25 12 9 12 8 13 23 30 36 30 29 39 33 21 19 17 18 22 19 19 22 22 20 15 14 18 19 18 20 23 24 25 25 25 24 24 23 21 19 19 20 19 17 16 15 13 14 16 19 20 20 20 20 22 23 25 26 27 29 31 33 35 35 35 35 35 34 32 31
28 30 37 42 42 37 34 35 37 38 39 37 37 40 35 22 18 21 13 5 8 7 7 15 26 32 30 37 51 47 36 32 28 27 33 31 27 27 24 20 16 18 23 23 19 21 26 27 25 25 25 23 19 15 13 14 17 19 19 19 18 17 15 14 15 16 18 19 20 21 24 25 26 28 29 31 33 35 37 37 37 37 37 36 34 33
27 21 24 35 38 35 32 33 39 41 39 38 38 37 38 35 28 25 20 12 10 9 8 11 15 19 32 46 55 56 54 46 36 34 35 33 29 25 20 17 20 22 23 23 20 21 27 31 30 27 22 18 13 9 10 13 16 18 20 20 20 19 18 16 15 16 17 20 22 23 26 29 30 31 32 35 37 37 37 38 38 39 39 38 37 35
25 21 22 30 34 36 37 37 40 41 36 33 34 33 35 38 36 28 24 24 20 11 6 8 9 15 32 46 52 58 58 48 39 34 31 32 31 27 24 26 31 32 31 31 29 30 34 36 36 33 24 17 15 15 17 22 25 26 26 25 24 24 24 25 25 22 19 20 24 28 30 32 34 34 35 38 40 40 40 40 41 41 41 41 40 37
25 24 26 29 31 38 44 44 42 39 35 32 30 30 30 32 32 21 15 26 31 21 14 12 10 16 31 44 52 59 57 49 44 40 38 40 38 36 38 41 45 47 44 42 42 42 39 36 37 36 29 25 27 30 33 36 37 33 29 28 28 29 31 32 32 29 26 26 28 31 34 35 37 37 39 41 42 44 44 43 43 44 44 44 43 40
31 30 31 32 34 42 48 47 44 42 42 38 32 32 32 30 31 23 14 22 31 29 28 23 15 16 30 45 54 57 57 53 50 49 49 50 48 47 50 52 53 55 54 54 55 51 42 36 36 36 36 39 44 44 44 46 44 38 32 29 30 34 35 35 35 35 36 38 37 35 35 37 40 42 43 44 45 46 47 46 45 46 47 46 46 44
33 31 33 36 36 41 45 44 45 45 46 46 42 43 43 40 42 40 35 34 30 25 25 19 12 13 23 39 51 54 54 54 52 53 53 53 55 57 59 59 57 57 59 59 57 51 44 41 40 42 46 51 52 49 49 48 45 44 41 35 32 34 36 38 39 40 41 43 43 41 39 39 42 46 48 47 47 49 50 50 49 49 50 49 49 47
30 27 27 24 18 19 23 25 30 36 40 43 45 45 47 49 50 47 46 41 28 27 31 20 12 21 29 37 46 50 52 54 54 55 56 57 59 61 62 59 52 50 52 52 51 50 47 46 45 46 51 54 54 53 52 50 46 45 46 46 42 40 40 43 45 46 45 45 46 47 48 47 45 47 51 50 49 51 53 54 54 53 52 52 51 50
31 27 26 20 10 8 12 14 20 27 30 32 35 36 38 42 44 44 46 38 24 30 41 30 24 37 44 43 46 48 51 53 55 57 61 63 60 57 55 51 45 45 48 51 53 53 51 51 50 50 52 53 54 55 55 53 49 45 45 49 51 50 48 47 47 47 47 47 49 52 55 56 52 49 50 51 49 50 53 57 58 57 55 54 53 53
32 32 34 32 27 26 29 32 33 36 37 37 37 37 37 38 40 42 43 39 34 36 40 40 40 44 44 43 46 49 50 52 55 58 61 58 49 44 45 47 49 51 50 51 53 54 54 55 54 54 54 55 55 57 57 54 52 51 51 52 54 56 54 48 44 47 49 51 54 57 59 60 58 52 50 51 50 49 52 56 58 58 57 56 55 54
38 39 42 43 41 41 43 45 45 45 47 49 49 48 48 46 46 45 42 44 44 34 29 39 44 41 41 44 46 46 46 46 48 51 54 54 51 50 52 53 55 54 51 51 51 52 54 55 55 56 56 57 57 56 54 52 51 52 54 55 56 58 57 51 46 47 49 49 51 54 54 55 55 52 50 51 51 51 52 55 57 57 56 56 56 55
38 40 44 45 43 40 40 40 41 41 43 45 45 46 48 50 51 52 52 55 54 43 40 48 49 47 49 45 39 39 41 43 48 52 56 60 60 59 57 55 55 54 53 53 51 50 52 53 54 54 54 55 54 53 53 52 50 48 48 50 52 53 56 55 51 48 47 46 48 48 47 48 50 51 51 51 51 52 53 54 56 55 54 55 56 55
29 31 35 37 36 34 34 36 39 40 41 45 46 46 47 48 50 53 57 60 60 59 60 60 58 57 52 43 41 45 47 49 54 57 59 61 61 61 60 58 57 55 54 53 51 50 49 50 51 50 50 51 51 52 51 48 46 44 43 45 49 50 51 52 52 52 50 50 50 48 45 45 48 51 50 49 49 51 52 53 55 54 53 53 54 55
26 26 31 34 36 36 38 41 41 41 41 42 41 40 40 42 45 50 53 55 57 59 59 58 55 50 41 38 44 50 51 54 57 58 59 60 60 61 60 57 55 52 50 49 49 48 47 45 45 45 45 45 45 47 47 46 45 45 44 46 49 52 53 52 52 53 53 52 51 49 46 45 47 50 49 47 47 49 50 51 52 53 52 53 54 55
32 34 37 38 37 39 43 43 42 43 41 40 41 43 45 47 48 48 46 45 47 50 50 48 42 34 28 30 36 40 44 49 52 53 53 52 53 54 54 53 52 49 46 44 43 43 43 42 41 40 41 41 41 43 44 47 49 50 50 51 52 53 55 56 56 54 54 53 51 49 47 46 46 47 47 47 46 47 49 50 51 53 52 52 51 51
44 41 39 36 33 39 46 45 44 40 32 32 41 46 46 46 46 45 43 42 45 47 42 34 29 27 24 22 23 28 32 34 36 41 44 44 46 46 46 46 45 43 41 38 36 35 36 38 39 39 39 39 40 41 43 45 49 53 55 55 55 54 53 54 55 54 53 53 52 50 49 48 48 46 46 47 47 48 49 50 51 52 51 50 49 47
49 44 40 36 32 37 46 48 42 28 19 29 43 44 41 41 42 42 39 36 35 34 26 17 14 16 16 15 16 20 22 21 22 28 34 35 35 37 38 38 38 38 38 36 34 33 32 33 35 35 36 37 38 40 41 43 46 50 52 53 55 54 52 50 50 49 49 51 52 52 51 50 49 48 46 47 48 48 48 48 49 49 50 50 50 48
50 49 46 41 35 35 41 38 24 15 23 35 38 34 33 35 34 31 26 20 17 15 10 7 8 10 12 14 16 15 17 17 15 18 23 26 27 29 32 32 34 36 36 36 36 35 34 33 34 35 36 37 37 38 39 40 41 42 44 46 49 51 51 48 46 45 46 49 51 53 53 51 49 47 46 47 47 48 49 49 51 52 52 52 51 49
41 41 40 39 34 29 27 22 15 19 32 32 24 23 26 26 24 22 19 15 14 12 9 10 15 18 20 21 22 21 21 20 17 17 19 22 25 28 30 30 31 31 33 34 36 37 37 36 35 34 35 36 36 36 36 37 37 37 37 37 39 43 45 45 44 45 47 49 51 52 54 54 52 49 47 47 48 49 51 53 54 54 53 52 51 49
26 27 30 32 29 25 24 25 26 30 31 24 21 24 23 19 19 19 18 17 18 20 19 18 24 31 34 35 36 36 34 30 26 25 27 29 31 33 34 35 35 34 34 36 37 38 39 38 36 34 33 33 34 33 33 33 33 34 35 34 34 37 39 41 42 44 47 49 49 50 52 54 54 52 50 50 50 52 54 54 54 53 52 51 50 49
18 18 22 23 20 21 22 18 15 15 13 12 16 17 14 15 16 18 20 21 22 22 22 24 31 39 41 42 44 45 46 44 39 36 38 41 41 42 43 44 44 43 42 42 42 42 42 42 40 38 36 35 34 34 34 32 31 31 32 33 34 34 35 37 40 42 45 46 47 48 49 50 51 51 51 51 51 52 53 54 53 52 51 51 50 49
19 19 22 22 20 22 22 14 7 9 10 11 15 18 19 21 21 22 20 18 17 19 22 30 39 43 43 44 45 46 48 50 50 50 50 51 52 51 52 53 54 53 52 52 52 52 51 49 48 45 43 42 39 38 36 34 33 31 29 30 32 33 33 33 35 38 41 43 44 44 45 46 47 48 49 49 50 50 50 50 50 50 52 53 53 52
22 23 26 28 28 27 25 18 15 19 21 20 23 28 30 30 29 24 15 10 13 21 31 39 42 42 43 43 45 46 45 46 51 55 56 56 56 56 56 57 59 60 60 60 60 60 60 59 57 55 53 51 48 45 41 38 36 35 32 30 30 31 32 31 31 33 35 38 40 41 42 43 44 45 45 46 48 49 49 48 49 50 52 54 54 53
24 23 22 22 24 24 24 22 21 26 32 34 36 38 37 35 31 24 19 20 27 35 40 41 39 38 40 40 41 44 44 43 47 52 55 56 57 58 58 58 59 60 61 62 62 62 63 63 63 62 60 59 58 54 49 44 40 39 38 35 33 33 33 32 31 31 32 33 36 38 40 41 41 42 43 44 46 48 49 49 50 51 52 53 53 51
20 18 16 16 16 17 19 21 21 25 31 34 34 33 30 28 28 28 32 37 40 41 41 40 38 39 40 40 41 43 44 45 46 48 51 53 55 56 57 58 59 59 59 60 61 61 62 64 65 65 64 63 62 61 59 54 48 44 42 41 40 40 38 36 34 33 33 32 33 35 37 38 38 39 40 42 44 45 46 47 49 50 52 52 52 51
22 19 19 20 20 18 19 17 14 19 26 25 24 27 29 30 33 37 41 43 42 41 40 39 40 40 41 42 43 44 46 47 47 46 48 50 52 54 55 55 57 58 57 57 58 58 60 63 65 65 65 64 62 62 62 61 58 53 48 46 46 47 45 43 40 37 36 34 33 33 34 34 35 35 36 38 39 40 41 42 44 46 49 51 52 52
28 27 26 28 26 23 23 21 18 23 29 28 29 34 36 36 37 38 40 42 41 39 39 39 40 41 42 43 45 45 47 47 47 47 47 49 51 53 53 52 53 54 54 55 55 55 55 58 61 62 62 62 60 59 59 60 62 62 58 54 52 52 51 49 48 45 42 39 36 34 33 31 30 31 34 36 37 37 37 37 38 40 43 46 47 48
29 27 25 26 26 26 29 32 33 34 34 33 33 35 35 36 36 38 40 41 40 39 38 39 41 42 43 44 45 46 47 47 46 47 47 48 50 52 53 53 51 51 51 52 51 51 52 53 56 58 59 58 57 55 55 55 58 62 63 60 57 56 55 54 53 52 50 47 42 38 35 32 30 29 30 33 35 36 34 32 32 35 39 42 44 44
31 29 27 30 33 34 36 37 37 35 33 32 33 33 35 36 36 36 38 39 39 39 39 41 43 44 44 45 46 47 47 47 47 47 47 48 49 50 51 52 52 51 50 50 50 50 50 51 53 54 56 56 53 51 51 51 51 55 58 58 56 56 57 57 56 55 54 53 50 47 43 39 36 34 32 31 32 34 32 30 30 31 35 39 42 44
36 34 34 36 37 36 36 36 35 34 34 35 36 36 36 36 35 36 38 40 40 40 41 43 44 45 46 47 47 48 48 48 48 49 48 48 50 51 52 53 52 52 51 51 50 51 51 52 53 53 54 55 54 51 51 51 50 49 50 51 52 53 54 55 57 57 56 55 54 53 52 48 45 43 40 38 36 35 35 34 33 32 33 35 38 40
37 34 35 36 35 35 38 40 38 36 36 37 38 38 37 36 37 38 40 41 41 42 43 44 45 46 47 47 47 48 49 49 49 50 50 50 51 53 54 54 54 54 54 54 53 52 52 53 54 54 54 55 55 54 52 52 51 50 48 47 48 48 50 51 53 55 57 56 55 55 55 55 53 51 49 47 45 43 41 40 39 39 37 36 36 37
36 36 37 38 38 40 43 42 38 37 38 39 38 38 37 37 38 40 41 43 44 44 45 45 45 47 47 46 47 48 49 49 49 50 51 52 53 54 55 56 57 57 58 58 58 57 56 56 56 57 57 56 56 56 55 54 53 52 51 50 49 48 49 49 49 52 55 56 56 55 55 55 56 56 55 55 54 51 49 48 47 46 44 42 40 39
38 39 40 39 40 44 44 40 38 39 42 41 38 37 37 37 39 41 43 44 45 45 46 46 46 47 47 47 48 49 50 49 49 50 52 53 53 54 55 56 57 59 61 62 63 62 62 61 61 61 61 60 59 58 58 57 55 54 54 54 53 52 51 49 49 50 52 53 54 54 53 52 53 55 57 58 58 57 55 53 52 50 49 48 47 47
43 41 40 40 43 45 44 40 39 42 44 42 38 37 37 38 40 42 44 45 45 45 45 46 47 47 47 47 47 48 51 51 51 52 54 54 54 55 55 56 58 60 62 64 66 66 66 66 66 66 66 65 64 63 63 61 59 56 57 57 57 56 55 52 51 51 51 51 52 52 51 50 50 52 54 56 58 57 56 55 54 52 51 50 50 51
Wind_Direction
273 269 264 264 269 273 277 280 283 286 287 285 283 281 280 280 280 283 286 291 296 290 287 289 291 292 293 294 296 295 294 290 288 289 290 290 292 292 292 290 288 288 287 285 285 287 283 277 271 266 264 260 259 257 256 255 255 255 254 252 251 252 254 255 253 251 254 258 259 259 261 263 261 257 254 251 248 247 247 248 250 251 251 252 254 256
270 265 265 271 277 281 282 282 282 282 281 279 279 278 278 278 280 285 288 291 295 289 287 292 293 290 292 293 293 293 291 290 290 291 293 294 295 295 294 292 290 290 289 286 286 288 284 278 273 269 264 259 257 257 256 255 255 255 255 256 255 254 253 253 253 251 254 258 260 260 261 260 258 256 253 251 249 247 246 247 249 249 247 247 249 252
265 264 270 278 283 284 282 278 277 278 279 277 276 275 275 278 285 288 289 293 297 291 289 295 293 290 292 292 292 292 291 291 293 293 296 298 298 296 295 294 292 290 289 289 289 288 283 277 272 267 262 259 258 257 255 255 256 256 256 257 256 255 254 253 252 250 253 257 259 258 256 254 253 251 249 247 245 243 241 241 242 242 241 243 246 249
264 268 276 280 280 280 278 277 277 279 279 277 275 273 274 281 286 286 290 297 298 291 292 297 294 290 291 291 291 292 292 294 297 298 301 301 299 299 298 296 292 289 290 292 293 290 285 278 271 263 258 256 256 255 255 255 256 257 257 257 257 256 254 253 252 250 252 255 255 253 251 250 250 249 245 242 242 241 239 237 237 237 239 242 246 249
269 273 278 278 277 277 278 278 277 278 280 279 277 274 277 285 286 286 293 298 294 290 292 299 297 293 295 294 292 295 297 300 303 304 304 304 304 305 302 297 292 289 290 296 300 302 298 287 274 264 258 255 255 255 256 256 256 257 257 257 257 254 253 252 249 247 249 250 250 249 250 251 251 249 246 242 241 241 240 239 238 238 240 243 245 248
274 276 278 277 276 276 277 278 277 277 280 280 278 279 284 289 289 290 295 296 292 292 295 302 302 298 300 290 289 298 302 304 307 308 308 311 314 316 312 309 306 296 290 299 308 313 314 301 283 271 262 256 256 257 257 256 255 256 256 256 255 254 253 250 244 243 245 246 247 249 253 255 255 253 250 247 244 243 243 241 239 239 239 240 241 245
278 281 281 279 279 278 275 276 279 277 275 276 280 288 292 291 290 292 295 291 286 290 294 292 278 289 295 289 290 301 306 307 311 313 316 327 338 327 321 316 309 296 287 301 310 316 321 311 288 275 266 258 260 263 262 260 259 259 258 256 255 254 250 245 242 243 245 247 249 253 257 258 256 254 249 244 242 240 237 232 230 231 233 235 239 244
282 288 287 285 284 279 273 278 290 284 272 274 286 294 292 292 292 293 293 286 284 289 290 283 260 272 287 289 296 304 306 312 320 328 6 7 320 318 320 308 294 291 296 307 310 313 319 311 286 274 267 263 269 272 269 268 266 263 262 257 253 249 245 242 243 246 247 249 251 254 257 257 256 253 245 238 234 228 223 220 221 225 229 233 238 243
284 287 287 284 281 281 284 293 301 290 275 279 290 291 287 288 287 286 287 284 288 293 290 280 245 246 281 291 301 307 307 323 341 101 77 327 319 320 314 265 247 280 302 310 311 312 314 302 279 270 267 266 273 278 275 272 270 266 263 256 249 245 242 243 247 250 251 250 251 252 254 253 251 249 242 235 226 217 216 218 219 222 227 232 236 240
287 287 285 280 278 285 295 299 295 283 278 284 289 285 283 283 281 282 283 283 287 287 278 247 206 217 287 294 301 311 304 321 149 146 332 322 315 309 290 249 251 283 303 310 310 308 307 295 276 268 268 268 274 281 280 275 272 270 266 256 249 245 245 249 252 254 252 250 250 250 250 248 247 246 239 228 219 216 218 219 220 223 227 231 234 237
287 285 281 280 285 292 295 294 289 283 281 283 284 280 278 276 277 279 276 276 282 275 267 254 253 248 282 294 306 349 294 163 170 291 315 313 294 271 299 284 279 288 300 306 298 292 301 298 283 272 272 272 274 280 283 279 274 272 267 257 250 250 252 255 254 251 249 249 249 248 246 244 243 242 234 224 220 220 221 221 224 227 230 232 233 235
283 282 283 288 292 293 292 288 284 284 284 283 279 274 276 280 281 279 268 263 221 266 273 268 263 244 242 271 295 315 287 251 273 301 310 295 262 295 310 303 289 289 299 301 286 274 285 294 288 278 276 277 278 282 285 282 274 268 261 253 252 256 257 255 250 249 248 248 248 245 243 241 240 239 234 230 228 226 224 224 227 229 231 234 236 239
275 275 280 284 284 284 285 281 280 284 283 280 273 265 270 296 298 279 241 230 194 254 272 268 236 228 246 263 273 280 287 288 292 304 305 286 294 302 305 303 290 292 303 298 280 267 274 286 287 281 279 281 283 285 287 283 275 267 258 253 255 256 254 251 248 248 247 246 245 242 240 239 239 239 237 236 234 231 229 229 231 233 235 238 241 246
279 277 275 273 275 277 275 272 276 284 285 280 272 262 246 221 292 273 246 274 245 258 269 256 221 240 261 272 281 286 293 298 294 292 295 302 305 297 293 296 296 304 308 294 278 270 273 282 284 283 283 283 286 289 288 284 275 266 258 254 253 252 249 247 245 244 243 242 242 239 238 239 239 239 238 238 237 234 233 233 235 237 239 241 244 248
279 282 279 274 272 273 272 272 277 282 284 282 278 267 246 239 247 247 239 253 266 276 275 233 209 245 268 279 289 295 295 291 286 286 295 299 295 286 289 297 304 308 305 295 282 274 275 280 283 285 285 284 287 291 288 285 275 259 250 246 247 246 245 243 242 242 242 241 240 238 238 239 240 241 241 241 240 237 237 237 239 240 242 244 247 251
267 271 277 279 279 278 277 280 284 281 276 275 271 253 247 258 259 249 247 253 261 282 271 231 236 259 269 276 280 281 282 283 286 287 286 283 275 277 299 305 307 306 304 304 298 286 280 280 283 287 289 287 286 287 285 283 268 243 234 235 237 239 240 240 239 240 239 238 238 238 239 241 243 245 245 246 246 245 244 244 245 246 247 248 250 253
262 266 270 271 271 273 274 277 280 278 272 267 260 256 265 272 263 251 253 257 256 266 258 250 259 268 272 278 279 279 283 284 282 273 260 248 251 271 294 304 303 305 315 322 313 302 290 283 284 286 287 287 284 283 282 274 257 243 243 248 247 248 249 245 241 238 237 237 236 235 237 241 244 247 249 250 250 250 249 249 249 248 248 249 252 256
258 263 267 267 266 266 267 271 273 273 273 266 262 271 275 272 255 246 248 255 243 247 253 244 254 268 273 279 278 277 277 270 259 251 250 251 260 273 285 291 294 302 312 315 315 321 317 302 293 288 285 286 285 283 278 266 256 254 258 262 264 265 263 256 247 240 235 235 235 236 238 242 246 249 250 251 250 249 249 249 249 249 248 251 255 258
256 260 267 267 266 267 266 268 269 269 270 266 264 268 265 258 251 239 224 229 235 245 254 230 240 256 259 264 271 272 268 264 263 265 267 265 264 270 271 273 290 301 298 298 305 322 328 323 312 298 288 287 286 282 273 263 261 263 266 270 272 274 272 264 258 252 249 249 248 246 245 246 251 254 254 252 250 249 250 250 250 250 251 253 256 259
255 256 267 264 264 270 271 268 269 269 269 266 262 260 254 254 257 248 238 241 239 248 259 236 231 241 248 258 267 270 271 272 273 270 264 257 257 265 266 273 291 294 290 292 297 304 310 313 313 304 289 281 283 284 288 291 289 286 283 279 278 279 273 266 270 274 272 272 271 266 261 260 263 264 261 257 253 251 251 251 252 252 253 255 256 259
257 254 263 267 268 273 270 266 269 272 271 265 257 254 251 251 254 257 253 246 245 253 255 246 241 233 243 257 266 269 271 272 274 270 257 251 254 260 266 278 285 285 286 292 297 301 299 296 298 296 285 275 279 285 292 301 305 302 298 293 290 286 277 272 276 278 275 275 276 275 274 273 272 269 264 260 258 256 254 253 253 253 254 256 256 257
270 269 267 266 263 264 268 270 272 272 270 264 255 250 249 249 253 261 261 250 248 250 249 254 260 240 243 258 267 270 270 269 269 266 261 258 260 263 270 278 282 284 284 284 291 300 300 293 290 285 276 275 285 291 294 298 303 304 300 296 291 286 281 280 281 282 282 281 279 276 275 275 272 268 265 263 261 259 257 256 255 255 256 257 256 257
273 275 270 263 258 261 269 274 273 270 268 263 254 249 248 249 251 251 248 252 251 251 255 258 261 249 248 258 267 270 269 269 268 267 266 268 270 275 280 283 285 285 285 284 290 297 297 290 283 276 275 284 292 294 295 297 300 300 295 291 285 281 280 280 281 286 289 288 285 279 273 270 269 267 264 262 260 260 258 256 256 256 257 258 258 257
267 265 263 264 264 265 268 271 269 266 265 261 257 255 253 250 251 251 251 255 256 256 259 260 261 252 249 259 265 267 268 270 270 270 272 277 281 285 288 288 288 288 288 290 293 296 294 287 280 273 277 286 290 290 291 291 292 291 286 280 274 272 274 276 279 284 287 288 287 282 274 269 267 265 260 257 257 258 257 256 256 256 257 259 259 257
264 256 256 264 269 267 266 268 267 266 264 262 262 264 262 258 256 256 258 261 261 257 256 257 259 254 252 258 263 264 267 271 272 273 278 286 290 293 294 294 294 291 289 290 291 291 289 286 281 275 273 276 277 279 283 283 281 281 281 277 268 264 268 272 277 281 282 283 284 282 278 275 272 266 259 256 257 257 257 256 255 256 257 258 259 258
263 260 260 262 262 263 265 263 267 274 275 272 269 272 272 269 267 264 262 260 259 256 253 249 256 259 258 259 261 263 268 272 276 281 287 293 295 294 293 293 293 290 287 286 284 283 283 282 281 277 274 272 271 274 280 280 275 271 274 275 270 267 272 275 278 283 282 281 280 278 276 276 277 272 261 257 258 257 256 256 255 255 256 257 259 259
272 275 272 271 266 263 266 269 272 276 277 276 276 277 278 277 276 271 262 255 257 261 255 250 257 262 261 262 266 270 275 279 284 287 291 294 293 289 286 286 288 287 284 281 279 279 280 280 279 278 278 278 278 280 281 281 277 269 266 267 265 265 270 274 276 280 280 280 279 276 274 275 277 273 261 256 258 257 256 255 253 253 254 255 257 259
275 277 275 274 270 269 272 276 278 278 276 275 274 275 276 277 275 269 260 256 261 265 262 259 261 264 268 272 276 279 280 281 282 283 283 283 283 283 281 280 281 281 279 278 277 277 278 279 279 280 280 282 283 283 282 281 281 276 270 268 265 262 264 266 268 271 273 275 275 274 275 276 274 268 260 257 257 256 256 254 251 250 251 254 256 258
270 271 271 272 272 273 275 277 279 280 279 278 277 276 278 278 276 271 268 268 268 266 267 269 269 271 275 278 277 276 276 274 273 273 273 274 276 278 278 278 278 279 279 280 280 280 281 281 281 281 282 283 284 283 282 281 281 279 276 273 270 265 264 264 263 263 264 266 267 267 272 275 271 265 262 261 258 256 256 255 250 247 248 251 253 255
268 272 272 273 275 275 273 275 277 279 283 285 283 283 283 282 279 276 274 274 272 269 271 273 273 273 275 276 274 272 271 269 269 269 269 270 272 274 277 279 279 280 280 281 282 282 282 281 281 281 280 281 281 281 281 280 279 279 278 274 271 269 269 269 267 265 264 265 264 263 267 269 266 264 263 262 259 257 257 255 250 247 248 250 252 254
269 275 274 277 283 282 279 279 279 282 286 286 284 284 283 281 280 279 279 279 278 275 276 278 277 275 272 271 271 270 268 267 267 267 267 268 270 272 274 277 278 279 280 279 279 279 279 278 278 278 278 278 277 277 277 277 277 277 277 276 274 273 275 275 273 269 267 267 266 265 264 263 261 262 262 261 259 258 257 255 252 252 254 254 254 255
272 276 279 283 287 286 282 281 283 286 287 284 282 279 277 277 280 282 283 284 280 277 278 280 281 279 275 269 266 263 264 265 265 265 265 265 266 269 272 275 277 278 278 277 276 275 275 276 276 276 276 276 276 276 276 276 276 276 278 278 276 275 276 275 273 270 268 267 266 264 262 258 257 258 258 258 258 258 256 254 254 257 257 256 256 256
276 278 280 281 282 282 282 282 285 289 290 283 278 277 276 278 280 281 280 278 274 272 273 272 271 272 274 271 262 255 257 261 262 262 262 263 265 267 269 272 275 276 277 278 277 276 275 275 276 276 276 277 278 280 280 281 281 280 281 281 279 278 276 273 271 270 268 267 264 261 259 258 256 255 255 256 256 255 254 254 256 257 255 254 255 257
278 278 278 276 275 277 280 284 287 289 280 273 274 277 278 277 275 275 275 272 269 268 264 257 257 268 275 276 272 263 260 264 268 267 264 264 265 265 266 269 271 274 276 277 278 280 279 278 278 278 279 280 280 281 281 282 282 282 282 282 282 281 278 275 273 269 266 264 262 258 258 259 257 255 254 256 255 253 252 254 255 255 253 252 253 255
278 278 277 274 269 271 277 282 286 276 266 271 276 277 276 272 268 269 271 270 267 263 258 265 283 294 297 296 296 289 277 273 276 273 266 264 268 270 270 270 271 272 275 278 279 281 283 283 283 282 283 283 283 282 281 280 280 280 281 281 280 281 280 278 275 269 262 260 259 257 256 257 257 257 256 257 256 251 250 252 253 252 250 250 250 251
275 275 273 270 267 269 270 263 254 264 272 275 274 269 266 261 257 266 276 279 278 277 280 299 314 319 318 314 312 308 299 290 285 284 280 273 275 280 281 283 284 283 284 286 286 287 289 289 289 289 289 289 287 284 280 278 278 278 279 279 278 278 279 279 275 270 262 257 256 256 254 254 256 257 256 256 256 253 251 251 252 250 249 248 247 246
263 263 264 265 262 258 255 252 258 270 272 267 260 260 261 257 262 282 295 295 293 289 281 290 313 323 324 322 318 312 308 301 291 290 297 295 290 291 291 293 296 296 294 294 294 293 294 295 294 295 296 297 296 292 283 277 275 275 274 274 273 273 274 274 272 268 263 256 253 253 253 254 255 256 255 254 255 254 253 253 253 251 248 246 245 244
252 245 250 259 258 256 264 271 272 271 268 261 260 261 265 269 283 307 311 298 292 285 277 290 312 321 325 325 322 317 313 308 297 291 298 302 299 297 298 298 300 299 297 297 296 295 295 295 295 296 298 300 302 300 292 280 274 272 270 268 267 267 266 266 265 264 261 256 252 249 249 250 251 253 253 253 254 253 253 253 253 250 247 246 244 245
241 234 245 263 271 271 275 283 279 270 276 278 274 277 283 288 300 316 312 292 279 278 289 306 315 318 320 321 322 321 320 317 309 300 300 304 303 302 303 302 301 301 300 299 299 298 297 296 296 296 297 299 301 301 298 288 277 271 266 263 262 261 260 260 260 259 256 253 250 247 245 244 246 248 250 251 252 252 251 251 250 247 245 245 244 245
254 253 259 268 272 271 270 272 270 270 271 270 272 277 283 291 301 308 301 273 276 294 308 315 316 315 317 318 320 321 321 321 316 309 307 309 308 306 307 306 303 303 302 302 302 301 300 299 298 297 296 298 299 299 299 295 286 277 270 266 264 262 260 259 258 256 252 250 248 245 243 243 244 245 247 249 250 251 251 250 248 246 244 243 243 244
278 274 269 268 268 266 265 266 267 269 269 271 273 275 280 287 290 286 279 283 295 305 312 316 317 317 318 317 317 318 317 318 317 313 311 311 310 309 309 308 306 305 305 305 305 304 302 300 300 299 298 299 300 299 298 296 292 285 279 273 270 270 267 264 261 257 252 249 246 244 243 243 243 244 246 246 247 249 249 247 245 243 241 240 240 239
279 279 273 263 258 259 260 262 268 272 272 273 274 273 278 287 287 283 288 296 302 307 311 314 315 316 316 316 315 315 315 316 317 315 313 312 311 311 309 309 309 307 307 306 306 306 305 302 300 300 299 299 301 300 299 297 294 290 286 281 278 277 275 270 266 261 255 251 247 243 242 242 241 242 242 242 243 244 243 243 241 238 237 237 235 234
269 272 269 263 262 265 264 261 265 270 271 274 278 276 279 287 290 291 295 299 302 305 308 310 311 312 313 313 313 313 314 315 316 316 315 313 312 312 310 310 310 310 309 308 307 307 307 304 302 301 300 300 301 301 300 299 295 292 289 286 283 281 278 275 272 267 261 257 251 246 243 241 240 239 240 240 240 239 239 239 238 237 236 234 232 232
264 265 267 269 268 262 255 252 256 265 273 281 286 285 286 289 292 296 299 300 301 304 306 306 307 310 312 312 312 312 313 314 314 314 313 312 311 312 312 312 312 311 311 310 309 308 307 306 304 302 301 302 302 302 300 299 296 292 290 289 288 285 281 278 276 274 270 265 259 253 249 246 243 240 239 240 240 240 240 240 240 239 238 236 234 232
266 268 269 270 267 260 258 263 269 275 282 289 291 291 292 292 294 297 298 299 301 304 305 305 306 309 311 311 311 311 311 312 312 311 311 310 309 310 311 312 312 311 310 310 310 309 308 306 305 304 302 302 303 303 302 300 298 294 292 292 292 289 285 282 280 279 277 274 268 261 256 252 249 246 243 240 239 239 240 243 243 241 240 240 240 237
273 275 273 271 272 272 271 272 278 284 290 295 296 296 295 295 296 297 298 299 302 303 304 305 307 309 310 310 310 309 309 309 309 308 308 307 306 307 309 309 309 308 307 307 307 307 306 306 305 305 303 302 302 304 303 301 300 297 294 292 292 289 287 285 282 280 279 277 273 268 262 257 254 253 252 250 246 242 241 243 244 242 241 242 242 241
278 279 275 274 275 276 275 279 286 291 294 297 299 299 297 297 297 298 298 301 302 301 301 304 307 308 309 309 309 308 308 307 307 306 306 305 305 305 306 306 306 305 304 304 304 303 303 303 304 304 304 302 302 303 303 302 301 300 297 294 290 287 285 284 282 280 278 277 275 273 269 265 261 259 258 258 259 257 253 252 252 250 246 243 243 243
281 280 276 273 274 275 278 285 291 292 293 297 299 298 298 298 297 297 298 299 299 299 300 303 305 306 307 307 307 306 305 305 305 304 303 303 303 304 304 304 303 302 301 300 300 299 299 299 299 299 300 301 302 302 301 300 300 300 299 295 290 286 283 281 280 279 278 277 277 275 273 270 267 264 261 260 262 263 262 262 262 260 255 251 248 247
280 276 274 276 277 277 280 286 291 291 293 296 297 295 296 296 294 295 297 297 299 300 300 301 303 305 305 305 304 304 303 302 302 301 301 301 302 302 302 302 301 300 299 299 298 297 296 296 296 296 296 297 298 298 297 297 297 297 296 294 291 287 282 278 277 276 276 276 275 275 275 273 270 268 266 264 264 265 266 266 266 266 264 261 257 255
273 271 274 274 273 275 283 290 291 289 292 296 297 295 293 292 292 294 295 297 299 300 300 301 302 302 302 303 303 302 301 300 300 300 300 300 300 300 299 298 297 296 297 297 296 296 295 295 294 294 293 294 294 293 293 293 293 292 292 290 288 286 283 280 276 273 272 272 272 272 273 273 271 269 268 267 267 268 268 268 268 268 268 266 265 264
271 271 274 274 274 280 288 293 291 287 290 295 297 294 291 290 290 292 295 297 299 299 299 300 300 299 299 299 300 301 301 301 301 300 299 298 297 296 295 293 293 293 294 294 294 294 294 293 293 293 292 292 292 292 291 290 290 290 289 287 285 284 283 280 277 272 269 269 269 269 269 270 270 269 268 267 268 268 269 269 269 269 268 267 267 266
Height
3130 3125 3121 3123 3126 3128 3130 3130 3126 3125 3126 3124 3122 3120 3118 3115 3111 3113 3114 3116 3118 3105 3097 3102 3094 3088 3090 3092 3095 3097 3097 3096 3093 3090 3088 3088 3089 3087 3087 3085 3084 3084 3083 3084 3084 3084 3083 3083 3084 3083 3082 3082 3081 3081 3081 3080 3080 3080 3080 3079 3079 3080 3080 3080 3081 3082 3082 3082 3082 3082 3083 3084 3085 3085 3086 3087 3089 3091 3093 3095 3096 3097 3098 3099 3100 3101
3124 3116 3114 3121 3124 3126 3126 3126 3124 3121 3121 3120 3119 3116 3113 3111 3106 3108 3112 3112 3115 3102 3089 3095 3089 3080 3085 3086 3088 3091 3089 3089 3089 3087 3084 3083 3084 3083 3082 3080 3078 3078 3078 3078 3079 3078 3078 3078 3078 3078 3076 3076 3076 3076 3076 3076 3075 3075 3075 3074 3074 3075 3075 3076 3077 3078 3078 3078 3078 3079 3079 3080 3080 3081 3082 3083 3085 3087 3089 3090 3091 3093 3094 3095 3096 3097
3115 3109 3114 3121 3122 3122 3121 3121 3120 3118 3118 3116 3115 3113 3107 3108 3104 3102 3106 3108 3111 3100 3086 3089 3081 3071 3078 3080 3081 3085 3083 3083 3084 3083 3081 3079 3079 3078 3076 3076 3074 3073 3073 3073 3073 3074 3073 3072 3072 3072 3071 3071 3071 3071 3071 3071 3071 3070 3070 3070 3070 3070 3071 3072 3073 3074 3074 3075 3074 3074 3075 3075 3075 3076 3077 3078 3080 3082 3083 3085 3086 3087 3089 3091 3092 3093
3109 3108 3115 3119 3119 3117 3116 3117 3118 3116 3114 3111 3110 3109 3103 3106 3105 3097 3099 3104 3105 3097 3087 3086 3073 3061 3070 3073 3073 3079 3078 3078 3079 3078 3078 3076 3073 3072 3071 3071 3070 3068 3068 3068 3069 3069 3068 3068 3067 3067 3066 3066 3066 3066 3066 3066 3066 3066 3066 3066 3066 3066 3067 3068 3069 3070 3070 3070 3069 3069 3069 3069 3070 3070 3071 3073 3075 3076 3078 3079 3081 3083 3085 3087 3088 3090
3105 3109 3114 3115 3114 3113 3112 3113 3115 3113 3109 3105 3105 3106 3102 3103 3104 3096 3097 3099 3097 3094 3090 3086 3067 3048 3058 3065 3064 3072 3073 3071 3073 3071 3072 3072 3069 3067 3065 3065 3065 3064 3065 3065 3065 3065 3065 3064 3063 3062 3062 3061 3061 3062 3062 3062 3062 3061 3062 3061 3062 3062 3062 3063 3065 3065 3065 3065 3064 3064 3065 3065 3065 3066 3066 3068 3070 3072 3074 3076 3078 3081 3082 3084 3085 3086
3103 3109 3111 3109 3109 3109 3109 3108 3111 3112 3105 3098 3099 3104 3102 3100 3100 3097 3098 3096 3090 3088 3088 3090 3073 3044 3045 3057 3058 3063 3067 3064 3066 3065 3064 3065 3064 3063 3063 3062 3063 3062 3063 3063 3062 3062 3062 3061 3061 3059 3059 3058 3058 3058 3058 3057 3057 3056 3056 3056 3057 3057 3058 3059 3060 3060 3060 3060 3060 3060 3061 3061 3061 3062 3063 3065 3068 3070 3073 3075 3077 3078 3079 3080 3080 3081
3100 3106 3107 3105 3105 3105 3106 3105 3107 3109 3102 3094 3095 3101 3101 3098 3098 3096 3097 3095 3088 3085 3084 3090 3086 3057 3039 3046 3053 3056 3059 3058 3059 3060 3059 3060 3060 3060 3061 3061 3061 3061 3060 3060 3060 3059 3059 3058 3057 3057 3056 3056 3055 3055 3054 3052 3052 3052 3051 3051 3052 3053 3053 3054 3055 3056 3056 3056 3057 3057 3058 3058 3058 3059 3060 3063 3065 3068 3070 3071 3073 3074 3074 3075 3076 3077
3098 3102 3102 3102 3102 3102 3103 3102 3103 3105 3101 3094 3094 3098 3098 3097 3096 3093 3094 3093 3087 3084 3081 3081 3088 3074 3043 3036 3047 3051 3052 3054 3054 3055 3056 3057 3058 3057 3057 3057 3057 3058 3058 3058 3057 3056 3056 3055 3054 3054 3053 3053 3052 3051 3050 3049 3048 3047 3047 3047 3047 3048 3049 3050 3051 3052 3052 3052 3053 3054 3054 3055 3055 3056 3057 3059 3061 3063 3065 3066 3068 3069 3070 3071 3072 3073
3098 3099 3098 3099 3099 3098 3098 3099 3100 3102 3099 3094 3094 3096 3094 3094 3093 3092 3091 3090 3087 3083 3076 3073 3083 3082 3053 3034 3043 3047 3047 3051 3051 3052 3054 3055 3055 3054 3053 3054 3054 3055 3055 3055 3054 3053 3053 3052 3050 3050 3050 3049 3049 3048 3047 3045 3044 3043 3043 3043 3043 3044 3045 3046 3048 3048 3048 3049 3049 3050 3050 3051 3052 3052 3053 3055 3057 3059 3060 3062 3063 3064 3066 3067 3068 3069
3096 3095 3094 3094 3095 3095 3095 3096 3096 3097 3096 3093 3094 3093 3092 3092 3089 3090 3089 3086 3089 3082 3071 3071 3078 3081 3058 3034 3041 3046 3044 3048 3047 3049 3052 3052 3053 3051 3051 3052 3051 3052 3052 3051 3050 3049 3049 3048 3047 3047 3046 3046 3045 3044 3043 3041 3040 3039 3039 3039 3040 3041 3042 3043 3044 3044 3045 3045 3046 3047 3047 3048 3049 3049 3050 3051 3053 3055 3056 3058 3059 3060 3062 3063 3064 3064
3094 3092 3090 3090 3090 3091 3092 3093 3092 3092 3093 3092 3092 3089 3089 3089 3086 3088 3086 3084 3089 3078 3067 3069 3074 3079 3063 3036 3038 3045 3043 3046 3045 3046 3050 3050 3050 3049 3049 3051 3050 3049 3048 3048 3047 3046 3046 3045 3044 3043 3042 3043 3042 3040 3039 3038 3037 3036 3036 3037 3037 3038 3039 3039 3040 3040 3041 3041 3042 3044 3044 3045 3045 3046 3047 3048 3050 3051 3053 3055 3056 3057 3058 3059 3059 3059
3090 3088 3087 3086 3087 3088 3089 3089 3088 3089 3090 3089 3089 3087 3086 3086 3084 3084 3081 3083 3086 3073 3064 3066 3068 3074 3061 3035 3036 3044 3044 3047 3045 3044 3047 3047 3047 3047 3047 3048 3047 3046 3045 3044 3044 3043 3042 3041 3040 3040 3039 3039 3038 3037 3036 3035 3033 3033 3033 3034 3034 3035 3035 3036 3036 3036 3037 3038 3039 3040 3040 3041 3042 3043 3044 3046 3047 3049 3050 3052 3053 3054 3054 3055 3055 3055
3084 3084 3086 3084 3084 3086 3086 3085 3085 3085 3087 3086 3085 3086 3087 3087 3085 3082 3080 3081 3080 3068 3061 3064 3066 3065 3048 3032 3038 3043 3043 3046 3044 3043 3044 3044 3044 3044 3044 3044 3043 3043 3041 3040 3039 3038 3039 3038 3037 3036 3035 3035 3034 3033 3033 3032 3031 3030 3030 3030 3030 3031 3032 3032 3032 3033 3033 3034 3035 3036 3037 3038 3039 3040 3042 3043 3044 3046 3047 3048 3049 3049 3050 3051 3051 3052
3078 3078 3081 3082 3081 3083 3083 3082 3082 3081 3082 3082 3081 3083 3085 3086 3085 3081 3079 3078 3072 3063 3059 3063 3065 3056 3038 3032 3038 3040 3041 3043 3042 3042 3042 3041 3041 3041 3040 3040 3040 3040 3038 3036 3035 3035 3035 3034 3034 3033 3032 3031 3030 3029 3029 3028 3028 3028 3027 3027 3027 3027 3027 3027 3028 3029 3029 3031 3032 3033 3034 3035 3036 3038 3039 3040 3042 3043 3044 3044 3045 3046 3047 3047 3048 3048
3075 3072 3074 3078 3079 3080 3079 3079 3080 3079 3078 3077 3077 3079 3079 3079 3079 3076 3073 3069 3063 3059 3059 3062 3059 3047 3036 3035 3037 3038 3039 3040 3040 3041 3040 3038 3038 3037 3037 3037 3037 3037 3036 3033 3032 3032 3032 3031 3031 3030 3030 3029 3028 3026 3026 3025 3025 3025 3025 3025 3024 3024 3024 3024 3025 3025 3027 3028 3029 3030 3031 3033 3034 3035 3037 3038 3039 3040 3041 3041 3042 3043 3043 3044 3044 3044
3074 3069 3070 3073 3075 3076 3076 3077 3078 3077 3075 3073 3073 3074 3072 3072 3072 3068 3065 3062 3060 3059 3057 3054 3046 3037 3035 3034 3035 3036 3036 3037 3038 3038 3037 3035 3034 3034 3033 3033 3033 3033 3032 3031 3030 3031 3030 3029 3028 3028 3027 3027 3026 3025 3024 3024 3023 3023 3023 3022 3022 3021 3021 3021 3022 3023 3024 3025 3026 3028 3029 3030 3031 3033 3034 3035 3036 3037 3038 3038 3039 3039 3040 3040 3040 3040
3071 3066 3068 3069 3068 3071 3073 3073 3074 3074 3072 3071 3069 3068 3066 3067 3067 3063 3059 3058 3059 3056 3050 3046 3037 3032 3034 3031 3030 3033 3032 3033 3034 3032 3032 3031 3030 3031 3030 3030 3031 3030 3030 3029 3029 3029 3028 3027 3026 3025 3025 3024 3024 3023 3023 3022 3022 3021 3021 3021 3020 3020 3020 3020 3021 3021 3022 3023 3024 3026 3027 3028 3029 3030 3031 3032 3033 3034 3034 3034 3035 3035 3035 3035 3035 3036
3068 3062 3065 3066 3063 3065 3067 3068 3069 3069 3069 3067 3066 3065 3064 3063 3062 3061 3057 3055 3056 3050 3041 3039 3034 3031 3033 3028 3025 3028 3028 3029 3030 3028 3028 3028 3027 3028 3028 3028 3028 3028 3028 3029 3028 3028 3027 3026 3025 3024 3023 3022 3021 3021 3021 3020 3020 3020 3020 3019 3019 3018 3018 3018 3019 3019 3020 3021 3022 3023 3024 3025 3026 3027 3028 3028 3029 3029 3029 3030 3030 3030 3030 3031 3031 3031
3067 3061 3060 3063 3060 3059 3062 3063 3063 3063 3065 3063 3061 3063 3062 3059 3055 3055 3053 3050 3049 3042 3034 3033 3030 3029 3031 3025 3020 3022 3023 3024 3026 3026 3025 3025 3025 3025 3025 3025 3026 3026 3027 3027 3026 3026 3025 3025 3025 3024 3022 3021 3020 3019 3019 3019 3018 3018 3018 3017 3017 3016 3016 3016 3016 3017 3018 3018 3019 3020 3020 3021 3022 3022 3023 3023 3023 3023 3024 3025 3025 3025 3025 3026 3026 3026
3065 3060 3056 3058 3059 3055 3055 3058 3056 3056 3059 3058 3057 3057 3057 3054 3050 3049 3046 3043 3041 3036 3030 3028 3024 3022 3023 3021 3018 3016 3016 3018 3020 3021 3021 3021 3021 3021 3021 3022 3022 3023 3024 3024 3024 3024 3024 3024 3023 3023 3022 3020 3019 3018 3018 3018 3017 3017 3016 3015 3014 3014 3014 3014 3014 3015 3015 3015 3016 3016 3017 3017 3018 3018 3018 3018 3018 3018 3019 3020 3020 3020 3020 3020 3020 3020
3061 3058 3053 3054 3057 3053 3049 3050 3050 3050 3053 3052 3051 3051 3050 3049 3046 3043 3040 3038 3036 3030 3025 3022 3016 3013 3017 3019 3015 3011 3012 3015 3016 3017 3017 3017 3017 3017 3018 3018 3018 3019 3020 3021 3021 3021 3022 3022 3022 3022 3020 3019 3018 3017 3016 3015 3015 3014 3014 3013 3012 3011 3011 3011 3011 3012 3012 3012 3013 3013 3013 3014 3014 3015 3014 3013 3013 3014 3015 3016 3016 3015 3015 3015 3015 3015
3058 3055 3051 3050 3052 3048 3044 3045 3047 3047 3048 3047 3045 3045 3046 3044 3044 3041 3035 3033 3032 3024 3019 3017 3009 3006 3014 3017 3011 3008 3008 3011 3013 3013 3013 3012 3013 3014 3014 3015 3015 3015 3016 3017 3017 3018 3019 3020 3019 3018 3017 3015 3014 3014 3013 3012 3011 3011 3011 3010 3009 3008 3007 3007 3007 3007 3007 3007 3008 3008 3009 3010 3010 3010 3009 3008 3008 3008 3009 3010 3011 3011 3010 3010 3010 3010
3055 3051 3047 3044 3044 3042 3041 3044 3045 3043 3042 3043 3041 3041 3041 3040 3039 3037 3029 3027 3026 3019 3016 3014 3004 3000 3009 3012 3008 3006 3006 3006 3007 3008 3007 3007 3009 3010 3011 3012 3012 3011 3011 3012 3012 3013 3015 3015 3015 3013 3011 3010 3009 3008 3008 3007 3007 3007 3007 3006 3005 3003 3003 3002 3002 3002 3001 3001 3001 3002 3004 3004 3004 3004 3004 3003 3002 3002 3003 3004 3005 3005 3005 3005 3005 3005
3050 3047 3042 3038 3037 3037 3037 3039 3039 3037 3037 3036 3034 3036 3035 3032 3032 3029 3023 3023 3020 3015 3015 3011 2999 2997 3003 3006 3005 3004 3003 3002 3002 3003 3003 3003 3004 3005 3005 3006 3007 3007 3006 3005 3004 3004 3005 3006 3006 3005 3003 3002 3001 3000 3000 3000 3001 3000 3000 3000 2999 2998 2997 2997 2996 2996 2996 2995 2995 2995 2996 2997 2998 2998 2997 2997 2997 2997 2998 2999 2999 2999 2999 3000 3000 3000
3042 3040 3039 3036 3034 3032 3032 3033 3032 3031 3032 3028 3027 3030 3028 3026 3028 3024 3021 3021 3014 3011 3014 3006 2994 2994 3000 3001 3001 3001 2999 2998 2997 2997 2999 3000 3000 3000 2998 2997 2998 2998 2997 2997 2995 2995 2995 2996 2997 2996 2994 2993 2992 2992 2992 2993 2994 2994 2993 2992 2992 2991 2991 2990 2990 2990 2989 2989 2989 2988 2988 2988 2989 2990 2990 2991 2992 2993 2993 2993 2993 2992 2993 2994 2995 2995
3036 3035 3035 3033 3031 3029 3028 3028 3028 3028 3027 3024 3023 3025 3024 3024 3024 3020 3019 3016 3007 3004 3007 2998 2988 2990 2996 2997 2996 2997 2996 2994 2993 2993 2994 2996 2996 2993 2990 2986 2987 2989 2988 2988 2987 2986 2987 2987 2987 2988 2986 2986 2986 2986 2986 2987 2987 2986 2985 2984 2984 2984 2984 2984 2984 2983 2982 2982 2982 2981 2980 2979 2980 2981 2983 2984 2985 2986 2986 2986 2986 2986 2987 2988 2989 2989
3031 3030 3030 3029 3026 3025 3024 3023 3026 3026 3024 3021 3021 3020 3020 3021 3020 3017 3013 3007 3002 2999 2995 2991 2988 2987 2989 2992 2992 2992 2994 2993 2993 2992 2990 2988 2984 2983 2983 2981 2980 2980 2979 2978 2978 2977 2977 2977 2977 2978 2978 2979 2980 2980 2980 2980 2979 2977 2975 2974 2975 2975 2975 2975 2975 2975 2975 2974 2973 2972 2971 2971 2971 2973 2975 2976 2977 2978 2978 2978 2978 2979 2981 2982 2982 2983
3027 3023 3024 3023 3020 3021 3021 3019 3022 3022 3019 3017 3016 3015 3015 3015 3014 3013 3005 2999 3001 2996 2985 2986 2990 2984 2983 2989 2989 2988 2990 2990 2989 2986 2982 2978 2974 2974 2976 2974 2971 2970 2969 2969 2969 2968 2968 2968 2968 2969 2970 2971 2972 2972 2973 2973 2972 2970 2968 2967 2967 2967 2966 2966 2965 2964 2965 2965 2965 2964 2964 2964 2964 2965 2967 2967 2968 2968 2969 2969 2970 2972 2973 2975 2975 2976
3022 3018 3019 3018 3015 3016 3017 3015 3016 3016 3012 3011 3011 3009 3010 3009 3007 3005 2998 2996 2999 2991 2980 2983 2986 2982 2982 2985 2982 2981 2982 2982 2981 2978 2974 2971 2968 2967 2967 2965 2964 2964 2963 2963 2962 2962 2962 2961 2960 2961 2961 2962 2963 2964 2965 2965 2965 2964 2962 2962 2961 2960 2960 2958 2956 2956 2956 2956 2955 2956 2957 2958 2958 2958 2958 2958 2958 2959 2960 2961 2962 2964 2965 2966 2967 2969
3018 3014 3014 3014 3010 3010 3012 3011 3011 3010 3007 3005 3005 3004 3004 3002 3000 2997 2992 2992 2992 2984 2979 2980 2980 2979 2980 2975 2973 2975 2974 2973 2973 2970 2967 2965 2964 2962 2961 2959 2959 2958 2956 2956 2956 2955 2955 2954 2953 2953 2953 2954 2955 2955 2956 2956 2956 2956 2956 2955 2954 2953 2953 2952 2950 2950 2950 2948 2948 2949 2949 2950 2950 2950 2950 2950 2950 2951 2952 2953 2955 2956 2958 2959 2960 2961
3014 3010 3010 3010 3005 3003 3006 3006 3006 3006 3003 3000 2998 2998 2997 2994 2992 2990 2988 2988 2984 2977 2975 2975 2973 2972 2971 2966 2966 2967 2964 2964 2964 2962 2960 2959 2958 2956 2954 2953 2952 2950 2949 2949 2949 2948 2948 2947 2946 2945 2945 2946 2946 2947 2947 2947 2948 2948 2948 2948 2947 2946 2945 2944 2944 2944 2943 2942 2943 2943 2943 2942 2942 2942 2943 2943 2943 2944 2944 2946 2947 2949 2950 2951 2952 2952
3010 3006 3006 3008 3002 2997 3001 3002 3000 3001 2999 2995 2993 2991 2989 2987 2985 2984 2984 2983 2978 2972 2969 2969 2966 2963 2962 2961 2961 2959 2957 2957 2957 2954 2953 2952 2951 2950 2948 2946 2945 2944 2942 2942 2942 2942 2941 2940 2940 2939 2939 2939 2938 2939 2939 2939 2939 2939 2939 2939 2939 2938 2937 2936 2936 2936 2935 2935 2936 2936 2936 2935 2934 2935 2935 2936 2937 2937 2938 2939 2940 2941 2942 2943 2944 2945
3006 3003 3004 3006 2999 2992 2995 2996 2995 2997 2993 2986 2984 2983 2982 2982 2979 2977 2977 2975 2971 2967 2964 2962 2960 2958 2957 2957 2956 2954 2953 2952 2950 2947 2946 2945 2945 2944 2942 2941 2940 2938 2938 2937 2936 2935 2934 2934 2933 2933 2932 2932 2932 2931 2931 2930 2930 2930 2930 2929 2929 2929 2929 2928 2928 2928 2928 2928 2927 2927 2928 2928 2927 2927 2928 2929 2929 2930 2930 2931 2933 2934 2935 2936 2937 2937
3000 2999 2999 3001 2996 2989 2990 2991 2992 2992 2985 2976 2975 2977 2976 2975 2972 2970 2969 2966 2963 2962 2959 2956 2956 2956 2954 2952 2951 2951 2950 2948 2946 2944 2942 2941 2940 2939 2937 2936 2935 2934 2933 2932 2930 2929 2928 2928 2927 2927 2926 2926 2925 2924 2924 2922 2922 2922 2922 2921 2920 2920 2920 2920 2919 2919 2919 2918 2918 2918 2919 2919 2919 2920 2920 2921 2921 2922 2923 2924 2926 2927 2928 2929 2930 2930
2994 2994 2993 2994 2992 2987 2988 2991 2988 2980 2972 2969 2971 2973 2972 2969 2966 2964 2963 2960 2958 2957 2955 2954 2954 2953 2951 2949 2948 2947 2945 2944 2943 2940 2938 2937 2936 2934 2932 2931 2930 2929 2928 2926 2925 2924 2923 2922 2922 2921 2920 2920 2919 2918 2917 2916 2915 2914 2914 2912 2911 2911 2911 2911 2911 2910 2909 2909 2909 2909 2911 2911 2911 2912 2913 2913 2914 2915 2916 2917 2918 2919 2921 2922 2923 2923
2988 2989 2987 2987 2987 2984 2985 2986 2977 2968 2966 2968 2968 2968 2968 2965 2962 2961 2958 2955 2954 2954 2952 2951 2950 2949 2948 2946 2944 2943 2941 2939 2938 2936 2935 2934 2932 2930 2929 2927 2926 2925 2923 2921 2919 2918 2917 2917 2916 2915 2914 2914 2913 2912 2911 2909 2908 2906 2905 2904 2903 2903 2903 2903 2903 2902 2901 2900 2900 2901 2902 2903 2903 2904 2905 2905 2906 2907 2908 2909 2910 2911 2912 2913 2915 2915
2982 2984 2984 2983 2982 2980 2977 2974 2967 2964 2965 2965 2963 2963 2963 2960 2959 2958 2954 2951 2950 2950 2949 2948 2945 2943 2943 2941 2940 2938 2936 2934 2934 2933 2931 2930 2929 2927 2925 2924 2922 2920 2918 2916 2915 2913 2912 2911 2910 2909 2908 2908 2907 2906 2904 2903 2901 2899 2898 2897 2896 2896 2896 2896 2895 2894 2893 2893 2892 2893 2894 2895 2895 2896 2897 2898 2899 2899 2900 2901 2902 2903 2904 2905 2907 2907
2979 2980 2981 2979 2977 2975 2973 2969 2965 2963 2961 2959 2958 2960 2959 2957 2956 2955 2952 2949 2948 2947 2945 2943 2941 2939 2937 2935 2934 2932 2930 2929 2928 2928 2926 2924 2923 2922 2920 2919 2917 2915 2913 2911 2909 2909 2908 2906 2904 2903 2902 2902 2902 2901 2899 2897 2894 2893 2892 2891 2890 2889 2889 2889 2888 2887 2886 2886 2885 2885 2885 2886 2887 2889 2890 2891 2891 2892 2893 2894 2895 2896 2897 2898 2899 2900
2975 2976 2977 2975 2973 2972 2970 2967 2963 2960 2957 2956 2957 2956 2955 2954 2954 2953 2950 2946 2944 2944 2942 2939 2937 2935 2933 2931 2929 2927 2926 2923 2920 2920 2920 2917 2916 2915 2914 2912 2911 2910 2909 2907 2904 2903 2901 2900 2898 2897 2896 2896 2896 2896 2894 2891 2889 2887 2885 2884 2883 2883 2882 2882 2881 2881 2880 2879 2879 2878 2878 2878 2880 2881 2882 2883 2884 2884 2885 2886 2886 2887 2889 2890 2890 2892
2971 2972 2972 2970 2968 2968 2967 2964 2960 2957 2954 2954 2954 2953 2952 2951 2951 2951 2948 2943 2941 2941 2938 2937 2935 2933 2931 2929 2927 2925 2924 2921 2916 2914 2913 2911 2909 2909 2908 2906 2905 2903 2902 2901 2899 2897 2894 2893 2892 2890 2890 2889 2889 2889 2887 2885 2884 2881 2879 2878 2877 2876 2875 2875 2875 2875 2874 2873 2873 2873 2872 2872 2873 2874 2874 2875 2876 2877 2877 2878 2879 2880 2880 2881 2882 2884
2965 2966 2966 2965 2964 2964 2963 2960 2956 2952 2951 2952 2951 2950 2949 2948 2948 2947 2942 2938 2939 2938 2935 2934 2932 2930 2928 2926 2924 2923 2921 2920 2916 2912 2909 2907 2904 2903 2902 2901 2900 2898 2896 2893 2892 2890 2888 2886 2885 2884 2883 2882 2881 2881 2880 2879 2878 2877 2874 2873 2872 2870 2870 2869 2869 2869 2868 2868 2867 2867 2866 2866 2866 2866 2867 2867 2868 2869 2870 2870 2871 2872 2873 2874 2875 2876
2961 2961 2961 2960 2960 2959 2958 2956 2953 2948 2947 2947 2946 2946 2946 2945 2943 2940 2936 2935 2936 2934 2932 2930 2928 2926 2924 2921 2919 2918 2916 2914 2912 2909 2906 2904 2900 2898 2897 2895 2892 2891 2890 2888 2886 2883 2881 2879 2878 2877 2876 2876 2874 2873 2872 2871 2871 2870 2869 2868 2867 2865 2864 2863 2863 2863 2862 2862 2861 2860 2859 2859 2859 2859 2859 2860 2860 2861 2862 2863 2864 2865 2866 2866 2868 2868
2959 2958 2956 2956 2956 2955 2954 2953 2949 2944 2942 2944 2943 2942 2943 2941 2938 2935 2933 2932 2931 2930 2928 2926 2923 2922 2919 2916 2914 2912 2909 2908 2906 2903 2900 2898 2895 2893 2891 2889 2886 2884 2883 2881 2880 2877 2874 2871 2870 2869 2868 2868 2867 2866 2864 2862 2861 2862 2862 2862 2862 2860 2858 2857 2856 2856 2856 2855 2854 2853 2852 2852 2852 2852 2853 2853 2853 2853 2854 2855 2856 2857 2858 2859 2860 2861
2955 2953 2951 2951 2952 2950 2947 2944 2942 2938 2939 2942 2941 2939 2938 2937 2935 2933 2930 2927 2927 2926 2924 2921 2919 2917 2915 2911 2909 2906 2904 2902 2900 2897 2894 2892 2889 2887 2885 2883 2882 2879 2877 2875 2874 2872 2868 2865 2862 2861 2860 2860 2859 2858 2856 2854 2852 2852 2854 2854 2854 2853 2852 2851 2850 2849 2849 2849 2848 2847 2846 2846 2845 2846 2846 2846 2846 2847 2848 2848 2849 2850 2851 2852 2853 2854
2948 2949 2948 2946 2946 2944 2940 2937 2936 2936 2938 2939 2937 2935 2934 2933 2931 2929 2926 2923 2922 2921 2918 2916 2914 2912 2910 2906 2904 2901 2899 2897 2894 2892 2889 2886 2884 2882 2880 2878 2876 2874 2872 2870 2867 2865 2862 2858 2856 2853 2852 2853 2852 2850 2848 2846 2844 2843 2845 2846 2846 2845 2844 2844 2844 2843 2843 2842 2842 2841 2841 2841 2840 2840 2839 2839 2839 2840 2841 2842 2843 2843 2845 2846 2846 2847
2943 2945 2944 2941 2939 2938 2935 2933 2934 2934 2934 2933 2932 2931 2929 2927 2926 2925 2922 2919 2917 2915 2913 2910 2908 2906 2905 2901 2898 2896 2894 2892 2889 2887 2884 2881 2879 2877 2875 2873 2871 2869 2866 2864 2861 2858 2855 2851 2849 2847 2845 2845 2846 2843 2840 2839 2837 2836 2837 2837 2837 2836 2836 2835 2836 2836 2836 2835 2835 2835 2835 2835 2835 2834 2834 2833 2833 2834 2835 2836 2836 2837 2838 2839 2839 2840
2938 2940 2938 2935 2934 2932 2929 2928 2930 2930 2928 2927 2926 2925 2923 2922 2921 2919 2917 2914 2913 2911 2908 2905 2903 2901 2899 2896 2893 2890 2887 2886 2883 2880 2878 2876 2873 2872 2870 2867 2865 2862 2860 2857 2855 2851 2847 2844 2842 2840 2837 2836 2837 2835 2833 2831 2831 2830 2829 2829 2828 2827 2827 2827 2826 2826 2827 2827 2826 2826 2827 2827 2827 2827 2827 2827 2827 2827 2828 2829 2830 2830 2831 2832 2833 2834
2933 2933 2931 2929 2929 2927 2924 2923 2925 2924 2922 2922 2921 2918 2917 2916 2915 2913 2911 2909 2907 2906 2903 2901 2898 2896 2894 2892 2888 2884 2882 2880 2878 2874 2871 2869 2867 2865 2863 2860 2857 2855 2853 2851 2848 2845 2841 2838 2835 2833 2830 2829 2828 2827 2824 2823 2824 2823 2823 2822 2821 2819 2818 2818 2817 2816 2816 2817 2817 2817 2818 2819 2819 2819 2819 2819 2819 2820 2821 2822 2823 2824 2825 2826 2826 2827
2929 2927 2924 2923 2923 2921 2919 2919 2919 2917 2916 2917 2916 2914 2912 2911 2909 2907 2905 2903 2902 2900 2898 2896 2894 2891 2888 2886 2883 2880 2877 2875 2873 2869 2865 2863 2861 2859 2856 2853 2849 2846 2844 2842 2840 2837 2834 2832 2829 2826 2823 2822 2822 2819 2817 2816 2817 2817 2817 2815 2813 2811 2809 2808 2807 2806 2806 2807 2807 2807 2808 2808 2809 2810 2810 2810 2810 2811 2812 2814 2815 2816 2818 2819 2820 2820
2923 2920 2919 2920 2917 2914 2913 2914 2915 2912 2910 2910 2911 2910 2907 2906 2903 2902 2900 2898 2896 2894 2891 2889 2888 2886 2883 2881 2878 2874 2871 2869 2867 2863 2859 2857 2855 2852 2849 2846 2842 2839 2837 2833 2830 2828 2826 2824 2822 2818 2816 2815 2814 2812 2809 2808 2809 2810 2809 2807 2805 2803 2801 2799 2797 2796 2796 2796 2797 2797 2798 2798 2799 2800 2800 2800 2801 2802 2803 2804 2806 2808 2810 2811 2812 2813
2916 2915 2916 2915 2910 2907 2908 2910 2910 2908 2905 2905 2905 2904 2902 2900 2898 2896 2894 2893 2891 2888 2886 2883 2881 2880 2878 2876 2873 2869 2864 2861 2860 2856 2852 2850 2849 2845 2842 2839 2834 2831 2829 2825 2822 2819 2816 2814 2812 2809 2807 2807 2805 2803 2801 2799 2800 2801 2800 2797 2795 2794 2792 2790 2788 2785 2785 2786 2786 2787 2788 2789 2789 2790 2790 2791 2792 2792 2793 2795 2796 2798 2801 2802 2804 2805